Change the Weather History Date:

Sunday, March 23, 2014

  Actual Average Record
Temperature  
Mean Temperature 36 °F 26 °F  
Max Temperature 45 °F 34 °F 48 °F (1965)
Min Temperature 26 °F 17 °F -30 °F (1975)
Degree Days  
Heating Degree Days 29 39  
Month to date heating degree days 954 960  
Since 1 July heating degree days 7309 8578  
Cooling Degree Days 0    
Month to date cooling degree days 0  
Year to date cooling degree days 0  
Moisture  
Dew Point 25 °F    
Average Humidity 0    
Maximum Humidity 0    
Minimum Humidity 0    
Precipitation  
Precipitation 0.00 in 0.02 in 0.43 in (1992)
Month to date precipitation 0.76 0.52  
Year to date precipitation 2.57 2.30  
Snow  
Snow 0.00 in 0.20 in 7.20 in (2009)
Month to date snowfall 8.8 4.9  
Since 1 July snowfall 35.5 40.4  
Snow Depth 0.00 in    
Sea Level Pressure  
Sea Level Pressure 30.24 in    
Wind  
Wind Speed 11 mph (East)    
Max Wind Speed 18 mph    
Max Gust Speed 25 mph    
Visibility 10 miles    
Events      
T = Trace of Precipitation, MM = Missing Value Source: NWS Daily Summary

Daily Weather History Graph

Daily Weather History Graph

Search for Another Location

Airport or City:

Trip Planner

Search our weather history database for the weather conditions in past years. The results will help you decide how hot, cold, wet, or windy it might be!

Date:

Astronomy

Mar. 23, 2014 Rise Set
Actual Time 8:18 AM AKDT 8:48 PM AKDT
Civil Twilight 7:38 AM AKDT 9:28 PM AKDT
Nautical Twilight 6:50 AM AKDT 10:17 PM AKDT
Astronomical Twilight 5:57 AM AKDT 11:10 PM AKDT
Moon 4:22 AM AKDT (3/23) 12:04 PM AKDT (3/23)
Length of Visible Light 13h 49m
Length of Day
12h 29m
Waning Gibbous, 53% of the Moon is Illuminated
Mar 23
Waning Gibbous
Mar 23
Last Quarter
Mar 30
New
Apr 7
First Quarter
Apr 14
Full

Hourly Weather History & Observations

Time (AKDT) Temp. Windchill Dew Point Humidity Pressure Visibility Wind Dir Wind Speed Gust Speed Precip Events Conditions
12:54 AM 35.1 °F 25.2 °F 26.1 °F 70% 30.27 in 10.0 mi East 16.1 mph 21.9 mph N/A   Partly Cloudy
1:54 AM 34.0 °F 25.0 °F 26.1 °F 73% 30.27 in 10.0 mi East 12.7 mph - N/A   Clear
2:54 AM 34.0 °F 24.6 °F 25.0 °F 70% 30.27 in 10.0 mi East 13.8 mph - N/A   Clear
3:54 AM 34.0 °F 24.2 °F 25.0 °F 70% 30.26 in 10.0 mi East 15.0 mph 21.9 mph N/A   Clear
4:54 AM 34.0 °F 24.2 °F 24.1 °F 67% 30.26 in 10.0 mi East 15.0 mph 21.9 mph N/A   Clear
5:54 AM 32.0 °F 22.5 °F 24.1 °F 73% 30.26 in 10.0 mi NE 12.7 mph - N/A   Clear
6:54 AM 30.9 °F 25.2 °F 24.1 °F 76% 30.26 in 10.0 mi NNE 5.8 mph - N/A   Clear
7:54 AM 28.9 °F 23.9 °F 24.1 °F 82% 30.25 in 10.0 mi ENE 4.6 mph - N/A   Clear
8:54 AM 30.0 °F 24.1 °F 26.1 °F 85% 30.25 in 10.0 mi ENE 5.8 mph - N/A   Clear
9:54 AM 37.0 °F 30.4 °F 27.0 °F 67% 30.25 in 10.0 mi East 9.2 mph - N/A   Clear
10:54 AM 39.9 °F 31.4 °F 27.0 °F 60% 30.23 in 10.0 mi East 16.1 mph 21.9 mph N/A   Partly Cloudy
11:54 AM 42.1 °F 34.2 °F 27.0 °F 55% 30.24 in 10.0 mi East 16.1 mph 20.7 mph N/A   Partly Cloudy
12:54 PM 42.1 °F 34.5 °F 26.1 °F 53% 30.24 in 10.0 mi East 15.0 mph 18.4 mph N/A   Scattered Clouds
1:54 PM 44.1 °F 38.1 °F 27.0 °F 51% 30.23 in 10.0 mi ESE 11.5 mph - N/A   Scattered Clouds
2:54 PM 44.1 °F 36.8 °F 26.1 °F 49% 30.22 in 10.0 mi East 16.1 mph - N/A   Scattered Clouds
3:54 PM 45.0 °F 38.9 °F 27.0 °F 49% 30.22 in 10.0 mi East 12.7 mph - N/A   Scattered Clouds
4:54 PM 43.0 °F 36.4 °F 26.1 °F 51% 30.21 in 10.0 mi East 12.7 mph - N/A   Partly Cloudy
5:54 PM 42.1 °F 35.7 °F 26.1 °F 53% 30.21 in 10.0 mi East 11.5 mph - N/A   Scattered Clouds
6:54 PM 42.1 °F 34.5 °F 26.1 °F 53% 30.20 in 10.0 mi East 15.0 mph - N/A   Scattered Clouds
7:54 PM 39.0 °F 31.8 °F 25.0 °F 57% 30.20 in 10.0 mi East 11.5 mph - N/A   Scattered Clouds
8:54 PM 34.0 °F 26.0 °F 25.0 °F 70% 30.21 in 10.0 mi ENE 10.4 mph - N/A   Scattered Clouds
9:54 PM 33.1 °F 26.1 °F 24.1 °F 70% 30.21 in 10.0 mi ENE 8.1 mph - N/A   Partly Cloudy
10:54 PM 30.0 °F 23.2 °F 21.9 °F 72% 30.22 in 10.0 mi East 6.9 mph - N/A   Partly Cloudy
11:54 PM 28.9 °F 22.8 °F 19.9 °F 69% 30.22 in 10.0 mi East 5.8 mph - N/A   Partly Cloudy